[[{"header":{"parameterUnit":"m.s-1","parameterCategory":2,"la1":30.2991,"la2":30.254,"lo1":-89.0895,"lo2":-89.0444,"dy":0.0017,"dx":0.0017,"nx":28,"ny":28,"refTime":"2024-04-16T09:00:00:Z","depth":"0","parameterNumber":2,"parameterNumberName":"U-component_of_CURRENTS"},"data":[0,0,0,0,0,0,0,0,0,0,0,0,0,0,0,0,0,0,0,0,0,0,0,0,0,0,0,0,0,0,0,0,0,0,0,0,0,0,0,0,0,0,0,0,0,0,0,0,0,0,0,0,0,0,0,0,0,0,0.2027,0.2028,0,0.2066,0.2066,0.2066,0.2065,0.2064,0.2064,0.2064,0.2048,0.2047,0.2047,0,0,0,0,0,0,0,0,0,0,0,0,0,0.1957,0.1958,0.2027,0.2028,0.2028,0.2065,0.2066,0.2066,0.2065,0.2064,0.2064,0.2064,0.2048,0.2047,0.2047,0,0,0,0,0,0,0,0,0,0,0,0,0,0.1988,0.1958,0.2027,0.2034,0.2035,0.2065,0.2066,0.2066,0.2065,0.2064,0.2064,0.2063,0.2048,0.2047,0.2047,0.2056,0,0,0.2047,0.2047,0,0,0,0,0,0,0,0,0.1986,0.199,0.2032,0.2033,0.2035,0.2062,0.2035,0.2061,0.2065,0.2051,0.2064,0.2063,0.2049,0.2049,0.2055,0.2055,0.2054,0.2047,0.2047,0.2046,0.2046,0,0,0,0,0,0,0,0.1984,0.1989,0.204,0.2033,0.2035,0.2037,0.204,0.204,0.2049,0.2052,0.2053,0.2061,0.2049,0.2055,0.2054,0.2054,0.2047,0.2047,0.2046,0.2046,0.2078,0.2079,0,0,0,0,0,0,0.1985,0.1987,0.2039,0.2041,0.2011,0.2039,0.2042,0.2052,0.2051,0.2051,0.2061,0.2061,0.2055,0.2054,0.2053,0.2075,0.2046,0.2046,0.2046,0.2077,0.2078,0.2079,0,0,0,0,0,0,0.1983,0.1989,0.2037,0.2016,0.2023,0.204,0.2051,0.2053,0.206,0.2059,0.2057,0.2067,0.2055,0.2054,0.206,0.2074,0.2046,0.2046,0.2076,0.2078,0.2079,0.211,0,0,0,0,0,0,0.1981,0.1988,0.1994,0.2017,0.2024,0.2059,0.2052,0.2054,0.2067,0.2067,0.2063,0.2061,0.2055,0.2061,0.206,0.2073,0.2046,0.2075,0.2077,0.2078,0.2108,0.2113,0.2117,0,0,0,0,0,0.1978,0.1985,0.1994,0.2,0.2032,0.2059,0.2063,0.2072,0.2068,0.2076,0.2075,0.2061,0.2072,0.2062,0.2061,0.2073,0.2074,0.2076,0.2078,0.2106,0.2112,0.2116,0,0,0,0,0,0,0.1952,0.1987,0.1996,0.2012,0.2037,0.206,0.2069,0.2075,0.2082,0.2079,0.2072,0.207,0.2083,0.2076,0.2065,0.2089,0.2072,0.2074,0.2093,0.2098,0.2102,0.2103,0.2046,0,0,0,0,0,0.1952,0.1969,0.2001,0.2015,0.2029,0.205,0.2062,0.207,0.2081,0.2084,0.2085,0.2086,0.2093,0.2092,0.2097,0.2107,0.2133,0.2116,0.212,0.2124,0.2125,0.2173,0.2181,0.2087,0.2087,0.2086,0,0,0.1946,0.1968,0.1977,0.2012,0.2031,0.2055,0.2055,0.2076,0.2092,0.208,0.2097,0.2101,0.21,0.2116,0.212,0.2109,0.2173,0.2127,0.213,0.2129,0.2176,0.2185,0.2193,0.2088,0.2088,0.2087,0,0,0.1946,0.1964,0.1981,0.2005,0.204,0.2056,0.2064,0.2092,0.21,0.2119,0.2118,0.213,0.2138,0.2144,0.2147,0.2177,0.2196,0.218,0.2197,0.2244,0.2252,0.2259,0.234,0.2354,0.2179,0.2179,0.2179,0,0.1938,0.1965,0.1989,0.2015,0.2036,0.2058,0.2081,0.2096,0.2122,0.2131,0.2126,0.2156,0.2152,0.2176,0.2187,0.2186,0.2229,0.2176,0.225,0.2257,0.2265,0.2345,0.236,0.218,0.218,0.218,0.218,0,0.1956,0.1978,0.199,0.2032,0.2057,0.208,0.211,0.2128,0.214,0.2156,0.2185,0.219,0.221,0.2212,0.2206,0.2254,0.2277,0.2253,0.2237,0.2276,0.2359,0.2374,0.2183,0.2182,0.2182,0.2181,0,0,0.1938,0.1992,0.1997,0.2014,0.2068,0.2084,0.2119,0.2154,0.2177,0.2196,0.2233,0.2242,0.2253,0.2257,0.226,0.229,0.2385,0.2294,0.2296,0.2375,0.2526,0.253,0.2548,0.2377,0.2379,0.2381,0.2577,0,0.1946,0.1983,0.2017,0.205,0.207,0.2108,0.2143,0.2175,0.2203,0.2245,0.2257,0.2295,0.2269,0.2292,0.2318,0.2371,0.2421,0.2336,0.2475,0.248,0.2478,0.2563,0.2476,0.2641,0.2592,0.2594,0.2596,0,0.1955,0.1978,0.201,0.2058,0.2073,0.2099,0.2154,0.2189,0.225,0.2281,0.2318,0.2342,0.2401,0.237,0.2483,0.2435,0.2486,0.2519,0.2527,0.2524,0.2511,0.2587,0.2671,0.2608,0.262,0.2618,0.2616,0,0.1922,0.1971,0.1991,0.2008,0.207,0.2092,0.2129,0.2192,0.2229,0.2313,0.2364,0.2422,0.2481,0.2535,0.2607,0.2561,0.2742,0.2687,0.2743,0.2746,0.2695,0.2689,0.2728,0.2771,0.2771,0.277,0.277,0,0.1918,0.1929,0.1972,0.1984,0.2015,0.2068,0.212,0.2168,0.225,0.2309,0.2381,0.2458,0.2525,0.2626,0.2663,0.2776,0.2799,0.2777,0.2798,0.2707,0.27,0.2658,0.2624,0.2778,0.2776,0.2775,0.2773,0,0.1879,0.1911,0.1927,0.198,0.2,0.2019,0.211,0.2143,0.2244,0.2332,0.237,0.2516,0.2669,0.2745,0.2872,0.287,0.2892,0.2987,0.2896,0.2902,0.2851,0.2822,0.2788,0.2703,0.3081,0.3082,0.3083,0,0.1862,0.1868,0.191,0.192,0.1943,0.199,0.2027,0.2125,0.2172,0.2368,0.2407,0.2598,0.2713,0.2931,0.2992,0.31,0.2975,0.3061,0.293,0.2866,0.2851,0.2704,0.2622,0.2902,0.2901,0.2901,0.2901,0,0.1822,0.1834,0.1848,0.1875,0.19,0.1938,0.2001,0.204,0.2172,0.2271,0.243,0.2546,0.2793,0.2888,0.3044,0.3078,0.2913,0.3055,0.3001,0.2735,0.2564,0.2486,0.2783,0.2897,0.2897,0.2898,0.2898,0.2898,0.1781,0.1781,0.1802,0.1823,0.1847,0.1874,0.1893,0.1971,0.2056,0.2193,0.2367,0.2528,0.2744,0.296,0.2978,0.2977,0.2922,0.2891,0.2879,0.2749,0.2594,0.2903,0.3017,0.3018,0.3019,0.302,0.302,0,0.1734,0.1743,0.1753,0.1769,0.1767,0.181,0.1861,0.1872,0.1941,0.2122,0.2257,0.2502,0.2632,0.2774,0.2895,0.2822,0.2636,0.2743,0.2505,0.2443,0.2753,0.267,0.2694,0.2694,0.2694,0.2694,0.2694,0.2694,0.1708,0.1701,0.1712,0.1688,0.1698,0.168,0.1697,0.172,0.1823,0.1982,0.2136,0.2299,0.2589,0.2785,0.2777,0.2698,0.2471,0.2375,0.2343,0.2565,0.2575,0.2585,0.2497,0.2485,0.2485,0.1905,0.1901,0.1898]},{"header":{"parameterUnit":"m.s-1","parameterCategory":2,"la1":30.2991,"la2":30.254,"lo1":-89.0895,"lo2":-89.0444,"dy":0.0017,"dx":0.0017,"nx":28,"ny":28,"refTime":"2024-04-16T09:00:00:Z","depth":"0","parameterNumber":3,"parameterNumberName":"V-component_of_CURRENTS"},"data":[0,0,0,0,0,0,0,0,0,0,0,0,0,0,0,0,0,0,0,0,0,0,0,0,0,0,0,0,0,0,0,0,0,0,0,0,0,0,0,0,0,0,0,0,0,0,0,0,0,0,0,0,0,0,0,0,0,0,0.0009,0.0009,0,-0.0043,-0.0043,-0.0044,-0.0077,-0.0078,-0.0078,-0.0078,-0.0158,-0.016,-0.0162,0,0,0,0,0,0,0,0,0,0,0,0,0,0.0042,0.0042,0.0009,0.0009,0.0008,-0.0043,-0.0043,-0.0044,-0.0077,-0.0078,-0.0078,-0.0078,-0.0157,-0.016,-0.0162,0,0,0,0,0,0,0,0,0,0,0,0,0,0.0012,0.0042,0.0009,-0.0014,-0.0016,-0.0042,-0.0043,-0.0044,-0.0077,-0.0078,-0.0078,-0.0078,-0.0157,-0.016,-0.0163,-0.0178,0,0,-0.0172,-0.0173,0,0,0,0,0,0,0,0,0.0014,0.001,-0.001,-0.0012,-0.0015,-0.0053,-0.0061,-0.009,-0.0077,-0.0055,-0.0078,-0.0078,-0.0125,-0.013,-0.0141,-0.0182,-0.0186,-0.0172,-0.0174,-0.0175,-0.0176,0,0,0,0,0,0,0,0.0016,0.0012,-0.0012,-0.001,-0.0013,-0.0034,-0.0039,-0.0067,-0.009,-0.0057,-0.0059,-0.0063,-0.0126,-0.0138,-0.0143,-0.0187,-0.0172,-0.0175,-0.0177,-0.0178,-0.0243,-0.0243,0,0,0,0,0,0,0.0027,0.0015,-0.0011,-0.0014,0.0,-0.0035,-0.0039,-0.0041,-0.0089,-0.0096,-0.0063,-0.0065,-0.0133,-0.0139,-0.0146,-0.0179,-0.0175,-0.0178,-0.018,-0.0243,-0.0243,-0.0243,0,0,0,0,0,0,0.0027,0.0025,-0.0009,-0.0,-0.0006,-0.0034,-0.0037,-0.0042,-0.0054,-0.0093,-0.0101,-0.0069,-0.0133,-0.0142,-0.0168,-0.0182,-0.018,-0.0182,-0.0244,-0.0243,-0.0243,-0.0237,0,0,0,0,0,0,0.0029,0.0026,0.0028,0.0001,-0.0006,-0.0022,-0.0037,-0.0043,-0.0055,-0.0058,-0.0101,-0.0108,-0.0134,-0.0163,-0.0171,-0.0186,-0.0185,-0.0244,-0.0243,-0.0243,-0.0237,-0.0237,-0.0236,0,0,0,0,0,0.003,0.0036,0.0028,0.0025,-0.0002,-0.0021,-0.0027,-0.0049,-0.0055,-0.006,-0.0086,-0.0107,-0.0168,-0.0166,-0.0175,-0.0191,-0.0244,-0.0244,-0.0243,-0.0238,-0.0237,-0.0236,0,0,0,0,0,0,0.0053,0.0032,0.0023,0.0023,0.0003,-0.0027,-0.003,-0.0046,-0.007,-0.0071,-0.0108,-0.0118,-0.0147,-0.0163,-0.016,-0.0206,-0.0208,-0.021,-0.0201,-0.02,-0.02,-0.0182,-0.0187,0,0,0,0,0,0.006,0.0056,0.0032,0.0032,0.0025,-0.0002,-0.0012,-0.0027,-0.0051,-0.0062,-0.0093,-0.0122,-0.0153,-0.0171,-0.0198,-0.0224,-0.0222,-0.0238,-0.0237,-0.0236,-0.0227,-0.0239,-0.0238,-0.0242,-0.0242,-0.0242,0,0,0.0069,0.0057,0.0055,0.0036,0.0021,0.0009,-0.0008,-0.002,-0.0034,-0.0067,-0.0094,-0.0123,-0.0158,-0.0189,-0.0203,-0.0205,-0.0231,-0.0236,-0.0236,-0.0226,-0.0238,-0.0238,-0.0238,-0.0242,-0.0242,-0.0242,0,0,0.0085,0.0076,0.0077,0.0062,0.0042,0.0022,0.0021,-0.0009,-0.0025,-0.0052,-0.008,-0.0111,-0.0156,-0.0187,-0.0208,-0.0217,-0.0227,-0.0227,-0.0216,-0.0228,-0.0228,-0.0227,-0.0211,-0.021,-0.0229,-0.0229,-0.0229,0,0.0098,0.0096,0.0075,0.0069,0.006,0.003,0.0028,0.0004,-0.0033,-0.0042,-0.0056,-0.0119,-0.0156,-0.0193,-0.0201,-0.0218,-0.0212,-0.022,-0.0227,-0.0227,-0.0227,-0.0211,-0.0209,-0.0228,-0.0228,-0.0228,-0.0228,0,0.011,0.0108,0.0109,0.009,0.0075,0.007,0.0037,0.0021,-0.0002,-0.0026,-0.006,-0.0109,-0.014,-0.0167,-0.0193,-0.0215,-0.0206,-0.0225,-0.0229,-0.0226,-0.0209,-0.0207,-0.0228,-0.0228,-0.0228,-0.0228,0,0,0.0147,0.0123,0.0124,0.0122,0.0088,0.0081,0.0058,0.0035,0.0036,-0.0016,-0.0016,-0.0095,-0.011,-0.0133,-0.0172,-0.0196,-0.0199,-0.0209,-0.021,-0.0191,-0.02,-0.0199,-0.0197,-0.0221,-0.0221,-0.0221,-0.0184,0,0.0166,0.0168,0.0145,0.0144,0.0145,0.0109,0.0097,0.0069,0.0045,0.0038,-0.0021,-0.0035,-0.0101,-0.0104,-0.0145,-0.0178,-0.0196,-0.0206,-0.0206,-0.0205,-0.0206,-0.0197,-0.0205,-0.0173,-0.0182,-0.0182,-0.0182,0,0.0189,0.0188,0.0193,0.0184,0.0183,0.0174,0.0163,0.0152,0.0124,0.0111,0.0075,0.0043,-0.0002,-0.0049,-0.0115,-0.0115,-0.0154,-0.0188,-0.0187,-0.0187,-0.0202,-0.0181,-0.017,-0.0325,-0.0179,-0.0179,-0.0179,0,0.0233,0.0224,0.0232,0.0226,0.0206,0.0206,0.0202,0.0178,0.0196,0.0173,0.0199,0.0119,0.0127,0.0039,-0.0037,-0.007,-0.0089,-0.0141,-0.0176,-0.0175,-0.0182,-0.0182,-0.0321,-0.0181,-0.0181,-0.0181,-0.0181,0,0.0265,0.0274,0.0256,0.0263,0.029,0.0258,0.0289,0.0277,0.0289,0.0345,0.0255,0.0299,0.0152,0.0121,0.0012,-0.0059,-0.0047,-0.0162,-0.0169,-0.0178,-0.0178,-0.0313,-0.04,-0.0179,-0.018,-0.018,-0.018,0,0.031,0.0294,0.0313,0.0307,0.0313,0.0337,0.0368,0.0398,0.0401,0.048,0.0489,0.0457,0.042,0.0278,0.0171,0.0043,-0.0136,-0.0078,-0.0064,-0.0072,-0.0285,-0.0371,-0.0485,-0.0558,-0.0127,-0.0127,-0.0126,0,0.033,0.0341,0.0362,0.0388,0.0388,0.0419,0.0452,0.0458,0.0513,0.0597,0.0659,0.0648,0.0674,0.0505,0.0265,0.0082,-0.0079,-0.0057,-0.0147,-0.0291,-0.0391,-0.0457,-0.0516,-0.0142,-0.0142,-0.0142,-0.0142,0,0.0375,0.0383,0.0405,0.0465,0.05,0.0551,0.061,0.0682,0.073,0.0818,0.0954,0.0989,0.0822,0.0636,0.0353,0.0195,-0.0186,-0.0063,-0.0226,-0.0425,-0.0491,-0.0565,-0.0155,-0.0142,-0.0142,-0.0142,-0.0142,-0.0142,0.0419,0.0453,0.049,0.055,0.06,0.0699,0.0789,0.0874,0.1014,0.1186,0.1186,0.1274,0.0953,0.0564,0.0321,-0.0161,-0.0169,-0.0319,-0.0407,-0.0457,-0.0554,-0.013,-0.0124,-0.0124,-0.0124,-0.0124,-0.0124,0,0.0487,0.0523,0.0575,0.0661,0.0746,0.0756,0.0908,0.1022,0.1232,0.1356,0.1478,0.1369,0.0967,0.0528,-0.0115,-0.045,-0.0594,-0.0635,-0.0757,-0.0799,-0.043,-0.046,-0.051,-0.051,-0.051,-0.051,-0.051,-0.051,0.0528,0.0597,0.0624,0.0776,0.0848,0.1007,0.1121,0.129,0.1418,0.1602,0.1652,0.1656,0.1328,0.0167,-0.0631,-0.082,-0.105,-0.1092,-0.1205,-0.0989,-0.0968,-0.0947,-0.0998,-0.116,-0.1161,-0.1547,-0.1551,-0.1554]}],[{"header":{"parameterUnit":"m.s-1","parameterCategory":2,"la1":30.2991,"la2":30.254,"lo1":-89.0895,"lo2":-89.0444,"dy":0.0017,"dx":0.0017,"nx":28,"ny":28,"refTime":"2024-04-16T09:00:00:Z","depth":"2","parameterNumber":2,"parameterNumberName":"U-component_of_CURRENTS"},"data":[0,0,0,0,0,0,0,0,0,0,0,0,0,0,0,0,0,0,0,0,0,0,0,0,0,0,0,0,0,0,0,0,0,0,0,0,0,0,0,0,0,0,0,0,0,0,0,0,0,0,0,0,0,0,0,0,0,0,0.1874,0.1875,0,0.1952,0.1953,0.1954,0.1956,0.1955,0.1954,0.1952,0.1926,0.1926,0.1927,0,0,0,0,0,0,0,0,0,0,0,0,0,0.1815,0.1816,0.1874,0.1875,0.1876,0.1952,0.1953,0.1955,0.1956,0.1955,0.1953,0.1952,0.1926,0.1926,0.1927,0,0,0,0,0,0,0,0,0,0,0,0,0,0.1864,0.1816,0.1874,0.1883,0.1885,0.1952,0.1953,0.1955,0.1957,0.1955,0.1953,0.1951,0.1926,0.1926,0.1927,0.1968,0,0,0.1929,0.1929,0,0,0,0,0,0,0,0,0.1861,0.1867,0.1881,0.1883,0.1884,0.194,0.1923,0.1953,0.1957,0.1933,0.1952,0.195,0.192,0.1921,0.1946,0.1967,0.1966,0.1929,0.193,0.193,0.193,0,0,0,0,0,0,0,0.1858,0.1864,0.1908,0.1882,0.1884,0.1914,0.1918,0.193,0.1936,0.1935,0.1934,0.1939,0.1921,0.1945,0.1945,0.1966,0.1929,0.193,0.193,0.193,0.2014,0.2016,0,0,0,0,0,0,0.184,0.1861,0.1905,0.191,0.1865,0.1916,0.1921,0.1926,0.1938,0.1939,0.194,0.1938,0.1945,0.1944,0.1944,0.1979,0.193,0.193,0.1931,0.2013,0.2015,0.2017,0,0,0,0,0,0,0.1839,0.1843,0.1902,0.1885,0.1894,0.1918,0.1925,0.1929,0.195,0.1943,0.1941,0.1956,0.1944,0.1943,0.1951,0.1978,0.1931,0.1931,0.201,0.2013,0.2016,0.2057,0,0,0,0,0,0,0.1837,0.1843,0.1851,0.1883,0.1894,0.1937,0.1926,0.1932,0.1954,0.1953,0.1956,0.1952,0.1942,0.1951,0.1952,0.1978,0.1932,0.2008,0.2012,0.2015,0.2053,0.2061,0.2067,0,0,0,0,0,0.1834,0.1844,0.1851,0.1857,0.1901,0.1938,0.1947,0.196,0.1957,0.1972,0.1972,0.1952,0.1974,0.1953,0.1954,0.198,0.2006,0.2011,0.2015,0.205,0.2059,0.2067,0,0,0,0,0,0,0.1813,0.1846,0.1854,0.187,0.1901,0.1936,0.1956,0.1967,0.1986,0.1983,0.1971,0.1968,0.1988,0.1984,0.1961,0.2018,0.199,0.1994,0.2016,0.2025,0.2032,0.2022,0.1932,0,0,0,0,0,0.1816,0.1837,0.1868,0.1883,0.1899,0.1933,0.1953,0.1965,0.1982,0.199,0.1997,0.2004,0.2012,0.2014,0.2025,0.2054,0.2066,0.2075,0.2082,0.2088,0.2084,0.2126,0.2136,0.203,0.203,0.203,0,0,0.1812,0.1833,0.1844,0.1882,0.191,0.1947,0.1941,0.1975,0.2002,0.1983,0.2024,0.2028,0.2026,0.2056,0.2066,0.2051,0.2132,0.2093,0.2098,0.209,0.2132,0.2142,0.2151,0.2033,0.2033,0.2032,0,0,0.1824,0.1836,0.1866,0.1895,0.1938,0.1961,0.197,0.2016,0.203,0.2068,0.2062,0.2077,0.2103,0.2107,0.2108,0.2163,0.2167,0.2177,0.2202,0.2244,0.2252,0.226,0.2315,0.2327,0.218,0.218,0.218,0,0.182,0.1858,0.188,0.1919,0.1943,0.1966,0.2004,0.2031,0.2075,0.2085,0.208,0.2129,0.2125,0.2151,0.217,0.2176,0.2208,0.2165,0.2251,0.2259,0.2266,0.232,0.2333,0.2183,0.2182,0.2182,0.2182,0,0.1863,0.1893,0.1912,0.197,0.2,0.2033,0.2068,0.2097,0.2115,0.2139,0.2174,0.2183,0.2205,0.2217,0.2206,0.226,0.2271,0.2254,0.2225,0.2279,0.2333,0.2346,0.2186,0.2185,0.2185,0.2184,0,0,0.1854,0.1928,0.1938,0.1959,0.2027,0.2046,0.2095,0.2136,0.2159,0.2199,0.2236,0.2254,0.2263,0.2267,0.227,0.2302,0.2385,0.2303,0.2304,0.2348,0.25,0.244,0.2448,0.2388,0.2389,0.2391,0.2527,0,0.1883,0.1946,0.1987,0.2038,0.2065,0.2099,0.2142,0.2178,0.2208,0.2255,0.2264,0.2305,0.2282,0.2304,0.2332,0.2375,0.2416,0.235,0.2449,0.2452,0.2383,0.2459,0.228,0.2379,0.2539,0.2541,0.2543,0,0.192,0.195,0.2006,0.2054,0.2071,0.2107,0.2155,0.22,0.226,0.229,0.2327,0.2349,0.2406,0.2379,0.2473,0.2438,0.2472,0.2497,0.2503,0.2434,0.2413,0.2348,0.2396,0.2563,0.2562,0.256,0.2559,0,0.1891,0.1961,0.1994,0.2015,0.2082,0.2101,0.214,0.2202,0.2238,0.232,0.2365,0.2423,0.2474,0.2519,0.2565,0.2538,0.267,0.2639,0.2617,0.2614,0.2471,0.2451,0.2702,0.2702,0.2702,0.2702,0.2701,0,0.1903,0.1922,0.1975,0.1989,0.2021,0.2078,0.2129,0.2174,0.2255,0.231,0.2381,0.2437,0.2513,0.2586,0.2611,0.266,0.2712,0.2637,0.2646,0.2483,0.2464,0.2616,0.2604,0.2707,0.2706,0.2705,0.2704,0,0.187,0.1914,0.1935,0.1989,0.2009,0.2027,0.2115,0.2145,0.2243,0.2323,0.2358,0.2479,0.2581,0.2644,0.2742,0.2723,0.2771,0.2769,0.258,0.2562,0.2681,0.267,0.2773,0.2772,0.2772,0.2771,0.277,0,0.1861,0.1872,0.1915,0.1924,0.1947,0.1993,0.2026,0.2124,0.2167,0.2335,0.2366,0.2504,0.2569,0.2701,0.2715,0.2768,0.2786,0.261,0.2503,0.269,0.2689,0.2679,0.267,0.2354,0.235,0.2346,0.2344,0,0.1821,0.1835,0.1851,0.1874,0.1895,0.1927,0.1986,0.2021,0.2149,0.2226,0.2338,0.2409,0.2553,0.2527,0.2597,0.259,0.2584,0.2545,0.2811,0.2347,0.23,0.2297,0.23,0.2315,0.2318,0.232,0.2322,0.2323,0.1778,0.1776,0.1798,0.1813,0.1832,0.1845,0.1857,0.1929,0.1992,0.2084,0.2213,0.2267,0.234,0.235,0.2315,0.2305,0.2464,0.2357,0.2365,0.2377,0.2287,0.2239,0.2228,0.223,0.2232,0.2234,0.2236,0,0.1719,0.1731,0.1737,0.1741,0.1727,0.1775,0.1811,0.1811,0.1851,0.1955,0.2025,0.1914,0.1934,0.2008,0.1965,0.1987,0.1945,0.1899,0.1827,0.186,0.1888,0.1769,0.1575,0.1573,0.157,0.1568,0,0,0.1688,0.1673,0.1677,0.163,0.1642,0.1617,0.1626,0.1632,0.1687,0.1667,0.1684,0.1836,0.1962,0.1727,0.1726,0.1646,0.1728,0.1587,0.2128,0.2079,0.2102,0.218,0.2037,0,0,0,0,0]},{"header":{"parameterUnit":"m.s-1","parameterCategory":2,"la1":30.2991,"la2":30.254,"lo1":-89.0895,"lo2":-89.0444,"dy":0.0017,"dx":0.0017,"nx":28,"ny":28,"refTime":"2024-04-16T09:00:00:Z","depth":"2","parameterNumber":3,"parameterNumberName":"V-component_of_CURRENTS"},"data":[0,0,0,0,0,0,0,0,0,0,0,0,0,0,0,0,0,0,0,0,0,0,0,0,0,0,0,0,0,0,0,0,0,0,0,0,0,0,0,0,0,0,0,0,0,0,0,0,0,0,0,0,0,0,0,0,0,0,-0.0166,-0.0167,0,-0.0224,-0.0225,-0.0226,-0.0256,-0.0256,-0.0256,-0.0256,-0.0329,-0.0331,-0.0333,0,0,0,0,0,0,0,0,0,0,0,0,0,-0.0128,-0.0129,-0.0166,-0.0167,-0.0168,-0.0224,-0.0225,-0.0226,-0.0256,-0.0256,-0.0256,-0.0256,-0.0328,-0.0331,-0.0333,0,0,0,0,0,0,0,0,0,0,0,0,0,-0.0162,-0.0129,-0.0166,-0.0189,-0.0192,-0.0224,-0.0225,-0.0226,-0.0256,-0.0256,-0.0256,-0.0256,-0.0328,-0.033,-0.0333,-0.0351,0,0,-0.0342,-0.0343,0,0,0,0,0,0,0,0,-0.016,-0.0163,-0.0185,-0.0188,-0.0191,-0.0233,-0.0238,-0.0269,-0.0256,-0.0232,-0.0256,-0.0256,-0.0298,-0.0303,-0.0315,-0.0355,-0.0358,-0.0342,-0.0344,-0.0345,-0.0346,0,0,0,0,0,0,0,-0.0158,-0.0161,-0.019,-0.0186,-0.0189,-0.0213,-0.0217,-0.0245,-0.0265,-0.0234,-0.0237,-0.0242,-0.0299,-0.0312,-0.0317,-0.0359,-0.0342,-0.0345,-0.0347,-0.0348,-0.0403,-0.0403,0,0,0,0,0,0,-0.0147,-0.0159,-0.0188,-0.0191,-0.0174,-0.0213,-0.0218,-0.022,-0.0265,-0.0271,-0.0242,-0.0243,-0.0307,-0.0313,-0.0319,-0.0344,-0.0345,-0.0348,-0.035,-0.0403,-0.0403,-0.0403,0,0,0,0,0,0,-0.0146,-0.0149,-0.0186,-0.0176,-0.0183,-0.0213,-0.0215,-0.0221,-0.0231,-0.027,-0.0277,-0.0246,-0.0307,-0.0315,-0.0337,-0.0347,-0.0349,-0.0352,-0.0404,-0.0403,-0.0403,-0.0392,0,0,0,0,0,0,-0.0144,-0.0148,-0.0145,-0.0175,-0.0183,-0.0199,-0.0215,-0.0222,-0.0234,-0.0236,-0.0276,-0.0283,-0.0308,-0.0332,-0.034,-0.0351,-0.0354,-0.0404,-0.0403,-0.0403,-0.0393,-0.0392,-0.0391,0,0,0,0,0,-0.0143,-0.0135,-0.0145,-0.0148,-0.0178,-0.0199,-0.0204,-0.0227,-0.0234,-0.0236,-0.026,-0.0281,-0.0334,-0.0334,-0.0343,-0.0355,-0.0404,-0.0404,-0.0403,-0.0394,-0.0392,-0.0391,0,0,0,0,0,0,-0.0115,-0.0139,-0.0149,-0.0149,-0.017,-0.0203,-0.0206,-0.0223,-0.0245,-0.0243,-0.0281,-0.0289,-0.0312,-0.0329,-0.0329,-0.0367,-0.0372,-0.0373,-0.0361,-0.036,-0.0359,-0.0337,-0.0357,0,0,0,0,0,-0.0108,-0.0111,-0.0138,-0.0138,-0.0144,-0.0175,-0.0185,-0.02,-0.0224,-0.0233,-0.0262,-0.0289,-0.0317,-0.0334,-0.0357,-0.0381,-0.0382,-0.0391,-0.039,-0.0389,-0.0375,-0.0387,-0.0386,-0.0401,-0.0401,-0.0401,0,0,-0.0097,-0.0111,-0.0113,-0.0133,-0.0149,-0.0159,-0.0181,-0.019,-0.0202,-0.0238,-0.0257,-0.0285,-0.032,-0.0346,-0.0358,-0.0363,-0.0385,-0.0388,-0.0387,-0.0374,-0.0386,-0.0385,-0.0384,-0.04,-0.04,-0.04,0,0,-0.0077,-0.0088,-0.0083,-0.0099,-0.0119,-0.0141,-0.0141,-0.0171,-0.0184,-0.0208,-0.0236,-0.0264,-0.0307,-0.0337,-0.0357,-0.036,-0.0376,-0.037,-0.0353,-0.0365,-0.0364,-0.0363,-0.0361,-0.036,-0.0372,-0.0372,-0.0372,0,-0.0064,-0.0061,-0.0085,-0.0087,-0.0096,-0.013,-0.0128,-0.0152,-0.0186,-0.0192,-0.0207,-0.0265,-0.0303,-0.0335,-0.0342,-0.036,-0.0359,-0.036,-0.0363,-0.0363,-0.0362,-0.036,-0.0359,-0.0372,-0.0372,-0.0372,-0.0372,0,-0.0043,-0.0043,-0.0039,-0.0056,-0.007,-0.0072,-0.0106,-0.0118,-0.014,-0.0164,-0.0192,-0.0242,-0.027,-0.0299,-0.0327,-0.0344,-0.0343,-0.036,-0.0368,-0.036,-0.0359,-0.0358,-0.0371,-0.0371,-0.0371,-0.0371,0,0,-0.0005,-0.0021,-0.0019,-0.0019,-0.005,-0.0057,-0.0073,-0.0093,-0.0088,-0.0138,-0.0134,-0.021,-0.0227,-0.025,-0.0292,-0.0316,-0.0326,-0.0334,-0.0335,-0.0332,-0.0337,-0.0366,-0.0368,-0.0343,-0.0343,-0.0343,-0.0338,0,0.0021,0.0032,0.0011,0.0016,0.0021,-0.0014,-0.0022,-0.0046,-0.0069,-0.0074,-0.0132,-0.0146,-0.0212,-0.0218,-0.0257,-0.0299,-0.0322,-0.0324,-0.0345,-0.0345,-0.0372,-0.0368,-0.034,-0.0336,-0.0338,-0.0337,-0.0337,0,0.0051,0.0055,0.0069,0.0065,0.0065,0.0059,0.0055,0.0046,0.0022,0.001,-0.0022,-0.0058,-0.0104,-0.0153,-0.0228,-0.0223,-0.0275,-0.0316,-0.0317,-0.0344,-0.0372,-0.0345,-0.0334,-0.0336,-0.0336,-0.0336,-0.0336,0,0.0098,0.0097,0.0113,0.0108,0.0094,0.0099,0.0096,0.0077,0.0096,0.0077,0.0098,0.0024,0.002,-0.0068,-0.0169,-0.0189,-0.0239,-0.0276,-0.0352,-0.0353,-0.0333,-0.0334,-0.0323,-0.0323,-0.0323,-0.0323,-0.0323,0,0.0136,0.015,0.0138,0.0148,0.0181,0.0151,0.0187,0.0179,0.0191,0.024,0.0156,0.0179,0.0044,-0.0009,-0.0123,-0.0228,-0.0204,-0.0339,-0.0355,-0.0329,-0.0329,-0.0333,-0.0334,-0.0323,-0.0323,-0.0323,-0.0323,0,0.0184,0.0174,0.0199,0.0198,0.0205,0.0232,0.0264,0.0295,0.0298,0.0365,0.0373,0.0316,0.0243,0.01,-0.0026,-0.0147,-0.0259,-0.0304,-0.0261,-0.0274,-0.0375,-0.0376,-0.0382,-0.0383,-0.0383,-0.0384,-0.0385,0,0.0209,0.0225,0.0249,0.0275,0.0278,0.0312,0.0346,0.0354,0.0404,0.0454,0.0503,0.0451,0.0415,0.0205,-0.001,-0.0204,-0.0241,-0.031,-0.0363,-0.0366,-0.0381,-0.0381,-0.038,-0.0324,-0.0324,-0.0324,-0.0324,0,0.0258,0.0267,0.029,0.035,0.0387,0.0436,0.0491,0.0551,0.0588,0.0639,0.07,0.0675,0.0478,0.0274,-0.0006,-0.0144,-0.0285,-0.0319,-0.0316,-0.0325,-0.0315,-0.0329,-0.0329,-0.0324,-0.0324,-0.0324,-0.0324,-0.0324,0.0301,0.0333,0.0369,0.0425,0.0476,0.0558,0.0613,0.0683,0.0772,0.0855,0.0836,0.081,0.057,0.021,-0.0034,-0.0283,-0.0285,-0.0376,-0.0374,-0.0373,-0.0379,-0.0372,-0.0392,-0.0392,-0.0392,-0.0393,-0.0393,0,0.0352,0.0388,0.0441,0.0508,0.0571,0.0599,0.0706,0.0758,0.0868,0.0943,0.0968,0.076,0.0529,0.0269,-0.0099,-0.0342,-0.0357,-0.041,-0.0373,-0.0371,-0.0369,-0.0375,-0.0387,-0.0388,-0.0388,-0.0389,0,0,0.0382,0.0438,0.0461,0.0568,0.0631,0.0731,0.0801,0.0879,0.0946,0.0985,0.0989,0.0932,0.0628,0.036,0.0036,-0.0166,-0.0214,-0.0209,-0.0189,-0.0105,-0.01,-0.0325,-0.0329,0,0,0,0,0]}],[{"header":{"parameterUnit":"m.s-1","parameterCategory":2,"la1":30.2991,"la2":30.254,"lo1":-89.0895,"lo2":-89.0444,"dy":0.0017,"dx":0.0017,"nx":28,"ny":28,"refTime":"2024-04-16T09:00:00:Z","depth":"4","parameterNumber":2,"parameterNumberName":"U-component_of_CURRENTS"},"data":[0,0,0,0,0,0,0,0,0,0,0,0,0,0,0,0,0,0,0,0,0,0,0,0,0,0,0,0,0,0,0,0,0,0,0,0,0,0,0,0,0,0,0,0,0,0,0,0,0,0,0,0,0,0,0,0,0,0,0.0942,0.0942,0,0.0945,0.0946,0.0946,0.1015,0.1017,0.1018,0.102,0.1101,0.1102,0.1102,0,0,0,0,0,0,0,0,0,0,0,0,0,0.0909,0.0909,0.0942,0.0942,0.0942,0.0945,0.0946,0.0946,0.1015,0.1017,0.1019,0.1021,0.1101,0.1102,0.1102,0,0,0,0,0,0,0,0,0,0,0,0,0,0.0919,0.091,0.0942,0.0977,0.098,0.0945,0.0946,0.0946,0.1014,0.1017,0.1019,0.1022,0.1101,0.1102,0.1102,0.1054,0,0,0.1105,0.1105,0,0,0,0,0,0,0,0,0.0918,0.092,0.0972,0.0975,0.0978,0.0982,0.0963,0.0986,0.1013,0.1001,0.102,0.1023,0.1067,0.107,0.1064,0.1058,0.1061,0.1105,0.1105,0.1106,0.1106,0,0,0,0,0,0,0,0.0918,0.092,0.0944,0.0972,0.0975,0.0962,0.0968,0.0967,0.1021,0.1003,0.1008,0.1007,0.1069,0.1063,0.1067,0.1063,0.1105,0.1105,0.1106,0.1106,0.1165,0.1166,0,0,0,0,0,0,0.0919,0.0919,0.0944,0.0944,0.0954,0.0961,0.0967,0.0978,0.1019,0.1027,0.1005,0.101,0.1061,0.1066,0.107,0.1132,0.1106,0.1106,0.1107,0.1164,0.1165,0.1166,0,0,0,0,0,0,0.0918,0.0921,0.0944,0.0931,0.0933,0.096,0.0971,0.0977,0.1014,0.102,0.103,0.1041,0.1063,0.1069,0.1117,0.1132,0.1107,0.1107,0.1162,0.1164,0.1165,0.1182,0,0,0,0,0,0,0.0917,0.0921,0.0936,0.0931,0.0934,0.0952,0.0969,0.0975,0.1007,0.1016,0.1053,0.1061,0.1065,0.1116,0.1118,0.1133,0.1108,0.1161,0.1163,0.1165,0.118,0.1184,0.1188,0,0,0,0,0,0.0916,0.0923,0.0937,0.094,0.0952,0.0953,0.0954,0.098,0.1007,0.1024,0.1061,0.1062,0.113,0.1117,0.1119,0.1135,0.116,0.1162,0.1165,0.1179,0.1183,0.1187,0,0,0,0,0,0,0.092,0.093,0.0946,0.0959,0.097,0.0966,0.0979,0.0997,0.1034,0.1059,0.1073,0.1082,0.1132,0.1131,0.1116,0.116,0.1146,0.1149,0.1156,0.116,0.1164,0.1231,0.1109,0,0,0,0,0,0.0924,0.0934,0.0944,0.0956,0.0966,0.0979,0.0986,0.1009,0.1033,0.1054,0.1077,0.1107,0.1131,0.1148,0.1168,0.1182,0.1213,0.1196,0.12,0.1203,0.126,0.1303,0.1316,0.1174,0.1174,0.1174,0,0,0.0929,0.0933,0.0942,0.0957,0.0968,0.097,0.0992,0.1018,0.1041,0.1054,0.1103,0.1125,0.1142,0.1171,0.1191,0.1178,0.1253,0.1206,0.1208,0.1266,0.1307,0.1321,0.1333,0.1176,0.1175,0.1175,0,0,0.0927,0.0951,0.0959,0.0968,0.0991,0.0988,0.1005,0.1027,0.1071,0.11,0.113,0.1177,0.1186,0.1218,0.1229,0.1265,0.1276,0.1258,0.1324,0.1362,0.1375,0.1387,0.1415,0.1429,0.1252,0.1252,0.1252,0,0.0936,0.0938,0.0962,0.0968,0.0983,0.1,0.1018,0.104,0.1079,0.1137,0.1127,0.1205,0.1213,0.1277,0.13,0.1275,0.1303,0.1298,0.1369,0.1381,0.1393,0.1419,0.1434,0.1254,0.1253,0.1253,0.1253,0,0.0929,0.094,0.0945,0.0955,0.0984,0.0991,0.1034,0.108,0.1118,0.1151,0.1248,0.1261,0.1321,0.131,0.1321,0.141,0.1403,0.137,0.1357,0.1408,0.1432,0.1447,0.1255,0.1255,0.1254,0.1254,0,0,0.0913,0.0934,0.0934,0.0946,0.0983,0.0995,0.1066,0.1133,0.12,0.1239,0.133,0.1378,0.1421,0.1442,0.145,0.1493,0.1575,0.1484,0.1486,0.1515,0.1671,0.1543,0.1547,0.1553,0.1557,0.156,0.1643,0,0.0895,0.0907,0.0927,0.0936,0.0956,0.1015,0.1075,0.1161,0.1233,0.1314,0.1384,0.1457,0.1453,0.1495,0.154,0.1572,0.1625,0.1557,0.162,0.1623,0.1504,0.1564,0.1571,0.1655,0.1658,0.1661,0.1663,0,0.0872,0.0889,0.0926,0.0963,0.098,0.101,0.1143,0.1194,0.1338,0.141,0.1516,0.1558,0.1661,0.1627,0.1735,0.1695,0.1721,0.173,0.1731,0.1635,0.1526,0.1602,0.1692,0.1689,0.1687,0.1685,0.1684,0,0.0837,0.0869,0.0904,0.0916,0.0979,0.1057,0.1108,0.1265,0.1326,0.1505,0.1559,0.1676,0.1728,0.1791,0.1821,0.1798,0.1914,0.1855,0.1771,0.176,0.1842,0.1829,0.1962,0.1962,0.1962,0.1962,0.1962,0,0.0786,0.0796,0.0911,0.0899,0.0991,0.1079,0.1187,0.1271,0.1405,0.1487,0.1618,0.1682,0.1781,0.1838,0.1866,0.1865,0.1945,0.1828,0.1789,0.184,0.1827,0.1851,0.1837,0.1965,0.1964,0.1964,0.1963,0,0.0737,0.0783,0.08,0.09,0.0964,0.1046,0.1182,0.1251,0.1402,0.1516,0.1573,0.1701,0.1799,0.186,0.1951,0.1894,0.1918,0.1903,0.1973,0.1929,0.1731,0.1717,0.1821,0.1818,0.1815,0.1812,0.181,0,0.0705,0.0731,0.0798,0.0855,0.0913,0.1057,0.1152,0.1266,0.134,0.1515,0.1549,0.1685,0.1775,0.1789,0.1866,0.1908,0.1888,0.1882,0.1818,0.1774,0.1726,0.1716,0.1706,0.1806,0.1805,0.1804,0.1803,0,0.0672,0.07,0.072,0.0824,0.0923,0.1,0.1142,0.1165,0.1318,0.1427,0.1514,0.1575,0.1673,0.1728,0.1774,0.1797,0.187,0.1851,0.1856,0.1796,0.1755,0.1709,0.1703,0.1793,0.1795,0.1796,0.1796,0,0.0655,0.0676,0.0714,0.0805,0.0899,0.0953,0.1013,0.1119,0.1176,0.1362,0.1388,0.1544,0.1661,0.1673,0.1713,0.1726,0.1702,0.1638,0.1655,0.1667,0.1576,0.1499,0.1461,0,0,0,0,0,0.0644,0.0661,0.0719,0.0774,0.0843,0.0901,0.1017,0.1081,0.1219,0.1244,0.131,0.1409,0.1483,0.1542,0.1528,0.1643,0.1703,0.1617,0.1636,0.1737,0.1748,0.1654,0,0,0,0,0,0,0.0642,0.0676,0.069,0.074,0.0783,0.0855,0.0912,0.1005,0.1025,0.1171,0.1213,0.1323,0.1407,0.1488,0.1504,0.1524,0.1505,0.1701,0.1697,0.173,0.1741,0.175,0.1657,0,0,0,0,0]},{"header":{"parameterUnit":"m.s-1","parameterCategory":2,"la1":30.2991,"la2":30.254,"lo1":-89.0895,"lo2":-89.0444,"dy":0.0017,"dx":0.0017,"nx":28,"ny":28,"refTime":"2024-04-16T09:00:00:Z","depth":"4","parameterNumber":3,"parameterNumberName":"V-component_of_CURRENTS"},"data":[0,0,0,0,0,0,0,0,0,0,0,0,0,0,0,0,0,0,0,0,0,0,0,0,0,0,0,0,0,0,0,0,0,0,0,0,0,0,0,0,0,0,0,0,0,0,0,0,0,0,0,0,0,0,0,0,0,0,-0.0045,-0.0045,0,-0.007,-0.007,-0.007,-0.0106,-0.0106,-0.0107,-0.0107,-0.0168,-0.0169,-0.017,0,0,0,0,0,0,0,0,0,0,0,0,0,-0.0036,-0.0036,-0.0045,-0.0045,-0.0045,-0.007,-0.007,-0.0071,-0.0106,-0.0106,-0.0107,-0.0108,-0.0167,-0.0169,-0.017,0,0,0,0,0,0,0,0,0,0,0,0,0,-0.0049,-0.0036,-0.0045,-0.0065,-0.0067,-0.007,-0.007,-0.0071,-0.0105,-0.0106,-0.0107,-0.0108,-0.0167,-0.0169,-0.017,-0.0163,0,0,-0.0175,-0.0176,0,0,0,0,0,0,0,0,-0.0048,-0.0049,-0.0062,-0.0064,-0.0066,-0.0085,-0.0089,-0.0103,-0.0105,-0.0091,-0.0107,-0.0108,-0.0143,-0.0146,-0.0149,-0.0166,-0.0169,-0.0175,-0.0176,-0.0177,-0.0178,0,0,0,0,0,0,0,-0.0047,-0.0048,-0.0055,-0.0062,-0.0065,-0.0076,-0.0079,-0.0092,-0.0113,-0.0093,-0.0095,-0.0097,-0.0144,-0.0147,-0.0151,-0.017,-0.0175,-0.0177,-0.0178,-0.0178,-0.021,-0.021,0,0,0,0,0,0,-0.0041,-0.0047,-0.0054,-0.0056,-0.0058,-0.0076,-0.0079,-0.0079,-0.0112,-0.0118,-0.0096,-0.0099,-0.0144,-0.0149,-0.0153,-0.0133,-0.0177,-0.0179,-0.018,-0.021,-0.021,-0.021,0,0,0,0,0,0,-0.0041,-0.0042,-0.0053,-0.0052,-0.0054,-0.0075,-0.0074,-0.0079,-0.009,-0.0114,-0.0121,-0.0104,-0.0145,-0.0151,-0.017,-0.0137,-0.0179,-0.0181,-0.021,-0.021,-0.021,-0.0103,0,0,0,0,0,0,-0.0041,-0.0041,-0.0039,-0.0051,-0.0054,-0.005,-0.0074,-0.0078,-0.0089,-0.0092,-0.0123,-0.0129,-0.0146,-0.0168,-0.0172,-0.014,-0.0182,-0.0211,-0.021,-0.021,-0.0107,-0.0099,-0.0093,0,0,0,0,0,-0.004,-0.0029,-0.0039,-0.004,-0.0051,-0.0049,-0.0051,-0.007,-0.0088,-0.0085,-0.0113,-0.0128,-0.0169,-0.0169,-0.0174,-0.0141,-0.0211,-0.021,-0.021,-0.011,-0.01,-0.0093,0,0,0,0,0,0,-0.0022,-0.0031,-0.0043,-0.0035,-0.0042,-0.0055,-0.0052,-0.0069,-0.0088,-0.0096,-0.0127,-0.0134,-0.0139,-0.0164,-0.0163,-0.0155,-0.0192,-0.0193,-0.0114,-0.0106,-0.0099,-0.009,-0.0183,0,0,0,0,0,-0.0017,-0.0012,-0.0024,-0.0017,-0.002,-0.0039,-0.0042,-0.0054,-0.0071,-0.0081,-0.0102,-0.0127,-0.014,-0.0143,-0.0165,-0.0156,-0.0204,-0.0142,-0.0135,-0.0128,-0.0127,-0.0187,-0.0185,-0.0209,-0.0209,-0.0209,0,0,-0.0009,-0.0012,-0.0011,-0.0013,-0.0021,0.0002,-0.0043,-0.0043,-0.0025,-0.0084,-0.0073,-0.0108,-0.0137,-0.0128,-0.0131,-0.0143,-0.0145,-0.0128,-0.0122,-0.0124,-0.0186,-0.0184,-0.0182,-0.0209,-0.0209,-0.0209,0,0,0.002,0.0007,0.0023,0.0027,0.0022,0.0022,0.0022,0.0008,-0.0002,0.0002,-0.0037,-0.0057,-0.0071,-0.0082,-0.0089,-0.0061,-0.0114,-0.0068,-0.0009,-0.0066,-0.0064,-0.0063,-0.0106,-0.011,-0.0053,-0.0053,-0.0053,0,0.0029,0.0057,0.0029,0.0053,0.007,0.0038,0.0072,0.0065,0.0046,0.0031,0.0017,-0.0025,-0.0044,-0.0038,-0.002,-0.004,-0.0087,-0.0029,-0.0054,-0.0055,-0.0056,-0.0101,-0.0107,-0.0048,-0.0048,-0.0049,-0.0049,0,0.0076,0.0102,0.0116,0.0144,0.0152,0.0179,0.0171,0.0165,0.0149,0.013,0.0109,0.0077,0.0044,0.005,0.0034,0.0026,-0.0009,-0.0044,-0.0069,-0.0046,-0.0096,-0.0104,-0.004,-0.0042,-0.0044,-0.0045,0,0,0.0091,0.0142,0.0149,0.0179,0.0207,0.0218,0.0245,0.025,0.024,0.0223,0.0209,0.0205,0.0151,0.0138,0.0106,0.0081,0.0053,0.0029,0.0024,-0.0001,-0.0072,-0.0067,-0.0076,0.0008,0.0007,0.0006,-0.0098,0,0.0144,0.0218,0.0229,0.0304,0.0343,0.033,0.0355,0.0342,0.0315,0.0286,0.0242,0.0214,0.0197,0.0173,0.0148,0.0062,0.0034,0.0084,-0.0102,-0.0107,-0.0096,-0.0084,0.0003,-0.0104,-0.0106,-0.0107,-0.0108,0,0.0191,0.0239,0.0321,0.038,0.0391,0.0426,0.0433,0.0445,0.0393,0.0358,0.0314,0.0255,0.0221,0.0191,0.008,0.0108,0.003,-0.0028,-0.0034,-0.0075,-0.0117,-0.0139,-0.0123,-0.0122,-0.0121,-0.012,-0.0119,0,0.0221,0.0304,0.0376,0.04,0.0454,0.047,0.049,0.0457,0.0446,0.0384,0.0352,0.0286,0.0241,0.0146,0.004,0.0044,-0.0096,-0.0117,-0.0183,-0.0184,-0.0204,-0.0204,-0.0205,-0.0205,-0.0205,-0.0204,-0.0204,0,0.0278,0.033,0.039,0.043,0.0478,0.05,0.0521,0.0503,0.0474,0.0453,0.0382,0.0345,0.0223,0.0129,0.0035,-0.0092,-0.0111,-0.0172,-0.0211,-0.0155,-0.0149,-0.0209,-0.0208,-0.0208,-0.0207,-0.0207,-0.0206,0,0.0287,0.0339,0.0413,0.0483,0.0493,0.0517,0.0546,0.0544,0.0518,0.0485,0.0466,0.037,0.025,0.0131,-0.0034,-0.01,-0.0223,-0.0267,-0.0187,-0.0221,-0.0271,-0.0263,-0.0352,-0.0353,-0.0353,-0.0354,-0.0354,0,0.0303,0.0343,0.043,0.0453,0.0483,0.0522,0.0535,0.0547,0.0543,0.0501,0.0478,0.0369,0.0293,0.0077,-0.0051,-0.0235,-0.0258,-0.0321,-0.0292,-0.0257,-0.0287,-0.0278,-0.027,-0.0355,-0.0355,-0.0355,-0.0356,0,0.0311,0.0338,0.0391,0.0445,0.0476,0.0517,0.0546,0.055,0.0555,0.0542,0.0478,0.037,0.0235,0.0077,-0.0067,-0.0197,-0.0277,-0.0328,-0.0327,-0.0301,-0.0262,-0.0289,-0.028,-0.0358,-0.0357,-0.0357,-0.0357,0,0.0296,0.0319,0.0379,0.0418,0.0461,0.0493,0.0524,0.0534,0.0539,0.0512,0.049,0.0358,0.0286,0.0094,-0.0039,-0.0163,-0.0193,-0.0226,-0.0232,-0.0231,-0.0158,-0.0088,-0.0163,0,0,0,0,0,0.0276,0.029,0.0339,0.0389,0.0438,0.0461,0.0511,0.0542,0.056,0.052,0.0512,0.0393,0.0202,0.0113,-0.0011,-0.0065,-0.0227,-0.0216,-0.027,-0.0369,-0.0367,-0.03,0,0,0,0,0,0,0.0255,0.0292,0.0325,0.0354,0.0379,0.0427,0.0464,0.0486,0.0475,0.0481,0.0382,0.0353,0.0164,0.0264,-0.0022,-0.006,-0.0111,-0.03,-0.0303,-0.0371,-0.0369,-0.0367,-0.0297,0,0,0,0,0]}]]